Skip Page Navigation
NASA JPL Caltech
NASA Logo - Jet Propulsion Laboratory + View the NASA Portal
+ Center for Near-Earth Object Studies
JPL Home Earth Solar System Stars & Galaxies Technology
JPL Solar System Dynamics
BODIES ORBITS EPHEMERIDES TOOLS PHYSICAL DATA DISCOVERY FAQ SITE MAP
JPL Small-Body Database Browser
Search: [ help ]  
324413 (2006 SH242)
Classification: Main-belt Asteroid          SPK-ID: 2324413
Ephemeris | Orbit Diagram | Orbital Elements | Mission Design | Physical Parameters | Discovery Circumstances ]

[ show orbit diagram ]
Orbital Elements at Epoch 2459000.5 (2020-May-31.0) TDB
Reference: JPL 14 (heliocentric ecliptic J2000)
 Element Value Uncertainty (1-sigma)   Units 
e .1269791047038897 5.5685e-08  
a 2.429566469498819 1.789e-08 au
q 2.121062294383269 1.3214e-07 au
i 2.314101476233946 4.4802e-06 deg
node 67.53533610827874 0.0001362 deg
peri 128.2159347053899 0.00013729 deg
M 29.21261943833736 1.5815e-05 deg
tp 2458888.256912348488
(2020-Feb-08.75691235)
6.0664e-05 TDB
period 1383.221098670643
3.79
1.5278e-05
4.183e-08
d
yr
n .2602620798265592 2.8746e-09 deg/d
Q 2.738070644614369 2.0161e-08 au
  Orbit Determination Parameters
   # obs. used (total)      201  
   data-arc span      6920 days (18.95 yr)  
   first obs. used      2001-05-18  
   last obs. used      2020-04-28  
   planetary ephem.      DE431  
   SB-pert. ephem.      SB431-N16  
   condition code      0  
   norm. resid. RMS      .61264  
   source      ORB  
   producer      Otto Matic  
   solution date      2020-May-21 21:00:55  

Additional Information
 Earth MOID = 1.12048 au 
 Jupiter MOID = 2.21711 au 
 T_jup = 3.496 
[ show covariance matrix ]

Ephemeris | Orbit Diagram | Orbital Elements | Mission Design | Physical Parameters | Discovery Circumstances ]

Physical Parameter Table
Parameter Symbol Value Units Sigma Reference Notes
absolute magnitude H 17.4   n/a MPO418666  

324413 (2006 SH242)          Discovered 2006-Sep-26 by Spacewatch at Kitt Peak
Reference: 20120406/Numbers.arcLast Updated: 2012-04-09

Alternate Designations
 2006 SH242 = 2008 AY103 
Ephemeris | Orbit Diagram | Orbital Elements | Mission Design | Physical Parameters | Discovery Circumstances ]
ABOUT SSD CREDITS/AWARDS PRIVACY/COPYRIGHT GLOSSARY LINKS
FirstGov 2020-Jul-10 04:46 UT
(server date/time)  
NASA Home Page
Site Manager:   Ryan S. Park
Webmaster  Alan B. Chamberlin